Volver al catálogo

DELTA 1 DEB

ActivoSSO
NORAD 42583·DEBRIS·🇺🇸 United States

Lanzado Nov 6, 1973 desde Vandenberg Space Force Base

Loading…

Próximos Pases (próximas 24 horas)

TLE

ActualizadoSource: Space-Track

Época: Sep 13, 2026, 21:40 UTC

1 42583U 73086HX  26256.90327389  .00000122  00000-0  13040-2 0  9993
2 42583 101.8600 242.8062 0095012 323.5735  35.8887 12.34775164535304

Sigue DELTA 1 DEB en tiempo real con AllMySat

Download on the App Store